Location: Haliburton Scout Reserve
(45.0900°N, 78.3200°W)
Time: 14:43:26
(UTC-04:00)

Courier 1B Rocket - Pass Details

Date: 14 February 2023
Orbit: 920 x 1202 km, 28.2° (Epoch: 27 March)

Event Time Altitude Azimuth Distance (km) Brightness Sun altitude
Rises 12:15:33 0° 222° (SW) 3,969 8.8 31.9°
Reaches altitude 10° 12:19:41 10° 202° (SSW) 2,955 8.7 31.9°
Maximum altitude 12:23:41 16° 168° (SSE) 2,495 8.9 32.0°
Drops below altitude 10° 12:27:33 10° 134° (SE) 2,837 8.1 32.0°
Sets 12:31:23 0° 113° (ESE) 3,731 8.3 32.0°
